Goodland, KS

4:07 PM MDT on May 24, 2018 (GMT -0600)
Renner-Goodland Municipal

Weather History for KGLD - July, 2014

Change the Weather History Date:

Thursday, July 3, 2014

  Actual Average Record
Temperature  
Mean Temperature 70 °F 75 °F  
Max Temperature 82 °F 90 °F 107 °F (1969)
Min Temperature 57 °F 60 °F 45 °F (1924)
Degree Days  
Heating Degree Days 0 0  
Month to date heating degree days 0 0  
Since 1 June heating degree days 38 37  
Since 1 July heating degree days 0 0  
Cooling Degree Days 5 10  
Month to date cooling degree days 12 30  
Year to date cooling degree days 207 250  
Since 1 June cooling degree days 161 209  
Growing Degree Days 19 (Base 50)    
Moisture  
Dew Point 60 °F    
Average Humidity 72    
Maximum Humidity 93    
Minimum Humidity 51    
Precipitation  
Precipitation 0.00 in 0.11 in 1.96 in (1944)
Month to date precipitation T 0.31  
Year to date precipitation 9.07 10.04  
Snow  
Snow 0.00 in 0.00 in - ()
Month to date snowfall 0.0 0.0  
Since 1 June snowfall 0.0 0.0  
Since 1 July snowfall 0.0 0.0  
Snow Depth 0.00 in    
Sea Level Pressure  
Sea Level Pressure 30.06 in    
Wind  
Wind Speed 19 mph (SSE)    
Max Wind Speed 30 mph    
Max Gust Speed 37 mph    
Visibility 10 miles    
Events      
T = Trace of Precipitation, MM = Missing Value Source: NWS Daily Summary

Daily Weather History Graph

Daily Weather History Graph

Search for Another Location

Airport or City:

Astronomy

Jul. 03, 2014 Rise Set
Actual Time 5:24 AM MDT 8:17 PM MDT
Civil Twilight 4:52 AM MDT 8:49 PM MDT
Nautical Twilight 4:12 AM MDT 9:29 PM MDT
Astronomical Twilight 3:25 AM MDT 10:16 PM MDT
Moon 11:23 AM MDT (7/3) 11:42 PM MDT (7/3)
Length of Visible Light 15h 56m
Length of Day
14h 52m
Waxing Crescent, 33% of the Moon is Illuminated
Jul 3
Waxing Crescent
Jul 5
First Quarter
Jul 12
Full
Jul 18
Last Quarter
Jul 26
New

Hourly Weather History & Observations

Time (MDT) Temp. Heat Index Dew Point Humidity Pressure Visibility Wind Dir Wind Speed Gust Speed Precip Events Conditions
12:53 AM 60.1 °F - 55.0 °F 83% 30.15 in 10.0 mi South 10.4 mph - N/A   Partly Cloudy
1:53 AM 60.1 °F - 55.9 °F 86% 30.13 in 10.0 mi South 9.2 mph - N/A   Scattered Clouds
2:53 AM 57.9 °F - 55.9 °F 93% 30.11 in 10.0 mi South 10.4 mph - N/A   Clear
3:53 AM 57.9 °F - 55.9 °F 93% 30.10 in 10.0 mi South 10.4 mph - N/A   Clear
4:53 AM 57.9 °F - 55.9 °F 93% 30.10 in 10.0 mi South 11.5 mph - N/A   Clear
5:53 AM 57.9 °F - 55.9 °F 93% 30.10 in 10.0 mi South 12.7 mph - N/A   Clear
6:53 AM 60.1 °F - 57.0 °F 90% 30.10 in 10.0 mi South 16.1 mph - N/A   Clear
7:53 AM 64.4 °F - 57.2 °F 77% 30.19 in 10.0 mi South 18.4 mph - N/A   Clear
8:53 AM 69.1 °F - 60.1 °F 73% 30.08 in 10.0 mi South 20.7 mph - N/A   Clear
9:53 AM 72.0 °F - 61.0 °F 68% 30.07 in 10.0 mi SSE 21.9 mph 27.6 mph N/A   Clear
10:53 AM 75.9 °F - 61.0 °F 60% 30.06 in 10.0 mi SSE 21.9 mph 29.9 mph N/A   Partly Cloudy
11:53 AM 78.1 °F - 61.0 °F 56% 30.05 in 10.0 mi South 21.9 mph 29.9 mph N/A   Partly Cloudy
12:53 PM 80.6 °F 81.5 °F 60.8 °F 51% 30.15 in 10.0 mi SSE 20.7 mph 29.9 mph N/A   Scattered Clouds
1:53 PM 81.0 °F 81.7 °F 61.0 °F 50% 30.03 in 10.0 mi SSE 24.2 mph 34.5 mph N/A   Partly Cloudy
2:53 PM 81.0 °F 81.9 °F 62.1 °F 52% 30.03 in 10.0 mi SSE 26.5 mph 35.7 mph N/A   Scattered Clouds
3:53 PM 82.0 °F 83.0 °F 62.1 °F 51% 30.01 in 10.0 mi SSE 24.2 mph 34.5 mph N/A   Scattered Clouds
4:53 PM 81.0 °F 81.7 °F 61.0 °F 50% 30.00 in 10.0 mi SSE 23.0 mph 31.1 mph N/A   Clear
5:53 PM 81.0 °F 81.9 °F 62.1 °F 52% 29.99 in 10.0 mi SSE 21.9 mph 31.1 mph N/A   Clear
6:53 PM 79.0 °F - 62.1 °F 56% 29.99 in 10.0 mi SSE 24.2 mph 34.5 mph N/A   Clear
7:53 PM 75.0 °F - 62.1 °F 64% 30.00 in 10.0 mi SSE 19.6 mph 26.5 mph N/A   Clear
8:53 PM 72.0 °F - 62.1 °F 71% 30.01 in 10.0 mi SSE 19.6 mph 28.8 mph N/A   Clear
9:53 PM 71.1 °F - 62.1 °F 73% 30.03 in 10.0 mi SSE 20.7 mph 28.8 mph N/A   Clear
10:53 PM 68.0 °F - 61.0 °F 78% 30.03 in 10.0 mi SSE 18.4 mph 26.5 mph N/A   Clear
11:53 PM 66.9 °F - 60.1 °F 79% 30.05 in 10.0 mi SSE 17.3 mph 27.6 mph N/A   Clear